[[{"header":{"parameterUnit":"m.s-1","parameterCategory":1,"la1":30.2991,"la2":30.254,"lo1":-89.0895,"lo2":-89.0444,"dy":0.0017,"dx":0.0017,"nx":28,"ny":28,"refTime":"2024-03-25T21:00:00:Z","depth":0,"parameterNumber":2,"parameterNumberName":"U-component_of_WINDS"},"data":[0,0,0,0,0,0,0,0,0,0,0,0,0,0,0,0,0,0,0,0,0,0,0,0,0,0,0,0,0,0,0,0,0,0,0,0,0,0,0,0,0,0,0,0,0,0,0,0,0,0,0,0,0,0,0,0,0,0,-8.1736,-8.174,0,-8.2128,-8.2132,-8.2137,-8.2277,-8.2275,-8.2274,-8.2273,-8.2669,-8.2681,-8.2693,0,0,0,0,0,0,0,0,0,0,0,0,0,-8.1106,-8.1116,-8.1736,-8.1741,-8.1746,-8.2127,-8.2132,-8.2138,-8.2277,-8.2275,-8.2274,-8.2272,-8.2665,-8.2679,-8.2694,0,0,0,0,0,0,0,0,0,0,0,0,0,-8.1426,-8.112,-8.1735,-8.1861,-8.1877,-8.2126,-8.2133,-8.2139,-8.2277,-8.2275,-8.2273,-8.2271,-8.2661,-8.2678,-8.2696,-8.2847,0,0,-8.275,-8.2758,0,0,0,0,0,0,0,0,-8.1408,-8.1449,-8.1838,-8.1853,-8.1871,-8.2151,-8.2056,-8.2376,-8.2278,-8.2125,-8.2273,-8.227,-8.2498,-8.2529,-8.2607,-8.2865,-8.2882,-8.2751,-8.2762,-8.277,-8.2775,0,0,0,0,0,0,0,-8.1385,-8.1433,-8.1891,-8.1843,-8.1863,-8.1897,-8.1941,-8.2117,-8.2318,-8.2138,-8.2149,-8.2194,-8.2507,-8.259,-8.2618,-8.2888,-8.2751,-8.2767,-8.2778,-8.2785,-8.329,-8.3293,0,0,0,0,0,0,-8.1343,-8.1414,-8.1878,-8.1903,-8.163,-8.191,-8.1959,-8.2063,-8.2317,-8.2354,-8.2195,-8.2199,-8.256,-8.2597,-8.2632,-8.2826,-8.277,-8.2786,-8.2797,-8.3288,-8.3291,-8.3294,0,0,0,0,0,0,-8.1329,-8.1383,-8.1863,-8.1662,-8.1725,-8.1924,-8.204,-8.2072,-8.2155,-8.236,-8.2396,-8.2243,-8.256,-8.2607,-8.2793,-8.2841,-8.2794,-8.2811,-8.3284,-8.3289,-8.3292,-8.3213,0,0,0,0,0,0,-8.131,-8.1377,-8.1437,-8.1662,-8.1735,-8.2017,-8.2043,-8.2081,-8.2186,-8.2195,-8.2415,-8.2449,-8.2562,-8.2765,-8.281,-8.2865,-8.2824,-8.3281,-8.3286,-8.3291,-8.3212,-8.3214,-8.3216,0,0,0,0,0,-8.1287,-8.1398,-8.1439,-8.1494,-8.1815,-8.202,-8.2062,-8.2191,-8.2189,-8.2251,-8.2383,-8.2442,-8.2829,-8.2783,-8.2835,-8.2895,-8.3278,-8.3285,-8.3291,-8.3211,-8.3214,-8.3216,0,0,0,0,0,0,-8.1172,-8.143,-8.1478,-8.1666,-8.182,-8.2043,-8.2125,-8.2189,-8.2346,-8.2347,-8.25,-8.2548,-8.2721,-8.2828,-8.2772,-8.3055,-8.3057,-8.3074,-8.2979,-8.2983,-8.2985,-8.2954,-8.2839,0,0,0,0,0,-8.1169,-8.1315,-8.1532,-8.1676,-8.1751,-8.1924,-8.2018,-8.2105,-8.227,-8.2336,-8.2481,-8.2638,-8.2796,-8.2896,-8.3052,-8.3229,-8.3279,-8.3296,-8.3298,-8.3298,-8.331,-8.3412,-8.3422,-8.3314,-8.3314,-8.3314,0,0,-8.1163,-8.1322,-8.1404,-8.1657,-8.1787,-8.1934,-8.1978,-8.2132,-8.2242,-8.2359,-8.2543,-8.2655,-8.2841,-8.3023,-8.311,-8.3116,-8.3352,-8.3306,-8.3305,-8.3317,-8.3419,-8.3429,-8.3438,-8.3319,-8.3318,-8.3317,0,0,-8.1227,-8.1362,-8.1498,-8.1627,-8.1824,-8.1938,-8.197,-8.2185,-8.2264,-8.2452,-8.2543,-8.2676,-8.2944,-8.3072,-8.3172,-8.3286,-8.3346,-8.3333,-8.3341,-8.3438,-8.3446,-8.3454,-8.3494,-8.3506,-8.3345,-8.3345,-8.3345,0,-8.1194,-8.142,-8.1558,-8.1708,-8.1816,-8.1931,-8.2068,-8.2187,-8.2423,-8.2494,-8.2499,-8.2838,-8.2971,-8.3184,-8.3212,-8.329,-8.3331,-8.3307,-8.3434,-8.3444,-8.3453,-8.3493,-8.3507,-8.3342,-8.3342,-8.3342,-8.3343,0,-8.137,-8.1525,-8.1611,-8.1838,-8.1956,-8.2098,-8.2257,-8.236,-8.2436,-8.255,-8.2739,-8.2904,-8.3095,-8.3152,-8.3228,-8.3377,-8.3375,-8.3405,-8.3409,-8.3458,-8.3498,-8.3514,-8.3337,-8.3338,-8.3339,-8.334,0,0,-8.1371,-8.1674,-8.1702,-8.1807,-8.2033,-8.2155,-8.2302,-8.2491,-8.2576,-8.2735,-8.2862,-8.3087,-8.3116,-8.323,-8.3321,-8.3407,-8.3485,-8.3427,-8.3434,-8.3431,-8.3659,-8.3633,-8.3648,-8.3528,-8.3531,-8.3534,-8.3643,0,-8.1463,-8.1733,-8.1862,-8.2074,-8.2219,-8.2331,-8.2459,-8.2611,-8.2721,-8.286,-8.2982,-8.3138,-8.3166,-8.3235,-8.3325,-8.3456,-8.3533,-8.3451,-8.3645,-8.365,-8.3593,-8.367,-8.3644,-8.3738,-8.3659,-8.3662,-8.3664,0,-8.1607,-8.1768,-8.1994,-8.2204,-8.2269,-8.2382,-8.2566,-8.2697,-8.2871,-8.2946,-8.3073,-8.3162,-8.332,-8.3315,-8.3535,-8.3476,-8.3564,-8.364,-8.3647,-8.3669,-8.3658,-8.3691,-8.3771,-8.3784,-8.369,-8.3688,-8.3686,0,-8.1583,-8.1856,-8.2027,-8.2113,-8.2362,-8.2439,-8.2546,-8.2718,-8.2823,-8.2984,-8.3053,-8.3229,-8.3324,-8.3458,-8.3592,-8.3576,-8.3798,-8.3804,-8.3863,-8.386,-8.3903,-8.3898,-8.3996,-8.3962,-8.3962,-8.3961,-8.3961,0,-8.1672,-8.1806,-8.202,-8.2125,-8.2278,-8.2425,-8.2573,-8.2688,-8.2841,-8.2969,-8.3077,-8.3195,-8.3365,-8.3505,-8.361,-8.3775,-8.3818,-8.3882,-8.3908,-8.3872,-8.3863,-8.3929,-8.3926,-8.3965,-8.3964,-8.3964,-8.3963,0,-8.1671,-8.1819,-8.2013,-8.2233,-8.2292,-8.2395,-8.2583,-8.2688,-8.2805,-8.2966,-8.3013,-8.3195,-8.3365,-8.3512,-8.3736,-8.3807,-8.3976,-8.4009,-8.3917,-8.3931,-8.3981,-8.3974,-8.4124,-8.4151,-8.4098,-8.4099,-8.4099,0,-8.1717,-8.1823,-8.2054,-8.2149,-8.2254,-8.2405,-8.2514,-8.2663,-8.2771,-8.2978,-8.3058,-8.3236,-8.3386,-8.3652,-8.3803,-8.3975,-8.4012,-8.4053,-8.4038,-8.3998,-8.4011,-8.4002,-8.4013,-8.4052,-8.4052,-8.4052,-8.4051,0,-8.1783,-8.1851,-8.2004,-8.2182,-8.2309,-8.2456,-8.2607,-8.2678,-8.2855,-8.2971,-8.3146,-8.3263,-8.3492,-8.3667,-8.3855,-8.3965,-8.4037,-8.4055,-8.4078,-8.4041,-8.3983,-8.4014,-8.3916,-8.4051,-8.4051,-8.4051,-8.4051,-8.4051,-8.1806,-8.1906,-8.2084,-8.225,-8.238,-8.2518,-8.2628,-8.2759,-8.2908,-8.3107,-8.3186,-8.3364,-8.3537,-8.3798,-8.3907,-8.4049,-8.406,-8.4093,-8.4101,-8.4106,-8.41,-8.3961,-8.4084,-8.4084,-8.4084,-8.4084,-8.4084,0,-8.1877,-8.1997,-8.2149,-8.2357,-8.2487,-8.2546,-8.2716,-8.2821,-8.2977,-8.3132,-8.3278,-8.348,-8.365,-8.3816,-8.3994,-8.4075,-8.4113,-8.4117,-8.4112,-8.4136,-8.408,-8.4042,-8.4084,-8.4084,-8.4084,-8.4083,-8.4083,-8.4083,-8.1929,-8.21,-8.2189,-8.2425,-8.2545,-8.2722,-8.2813,-8.2941,-8.3066,-8.3286,-8.3429,-8.3536,-8.3696,-8.3887,-8.4046,-8.409,-8.415,-8.4145,-8.4197,-8.4141,-8.414,-8.4138,-8.4103,-8.4157,-8.4157,-8.4242,-8.4243,-8.4243]},{"header":{"parameterUnit":"m.s-1","parameterCategory":1,"la1":30.2991,"la2":30.254,"lo1":-89.0895,"lo2":-89.0444,"dy":0.0017,"dx":0.0017,"nx":28,"ny":28,"refTime":"2024-03-25T21:00:00:Z","depth":0,"parameterNumber":3,"parameterNumberName":"V-component_of_WINDS"},"data":[0,0,0,0,0,0,0,0,0,0,0,0,0,0,0,0,0,0,0,0,0,0,0,0,0,0,0,0,0,0,0,0,0,0,0,0,0,0,0,0,0,0,0,0,0,0,0,0,0,0,0,0,0,0,0,0,0,0,9.7002,9.7004,0,9.7131,9.7133,9.7134,9.71,9.7098,9.7095,9.7093,9.722,9.7226,9.7231,0,0,0,0,0,0,0,0,0,0,0,0,0,9.6725,9.673,9.7002,9.7004,9.7006,9.7131,9.7133,9.7135,9.7101,9.7098,9.7095,9.7092,9.7218,9.7225,9.7232,0,0,0,0,0,0,0,0,0,0,0,0,0,9.6849,9.6732,9.7002,9.7004,9.7005,9.7131,9.7133,9.7135,9.7101,9.7098,9.7094,9.709,9.7216,9.7224,9.7233,9.7363,0,0,9.7259,9.7263,0,0,0,0,0,0,0,0,9.6842,9.6859,9.7002,9.7004,9.7006,9.7096,9.7082,9.7211,9.7102,9.7065,9.7093,9.7088,9.7181,9.7193,9.7225,9.7368,9.7374,9.726,9.7265,9.7269,9.7271,0,0,0,0,0,0,0,9.6833,9.6853,9.7053,9.7004,9.7007,9.6998,9.7011,9.7106,9.7143,9.7068,9.7066,9.7082,9.7182,9.7217,9.7228,9.7376,9.726,9.7267,9.7273,9.7276,9.7635,9.7639,0,0,0,0,0,0,9.6824,9.6846,9.7049,9.7057,9.6913,9.7006,9.7021,9.7071,9.7142,9.7149,9.7085,9.708,9.7204,9.7218,9.7232,9.7391,9.7269,9.7277,9.7282,9.7631,9.7636,9.7641,0,0,0,0,0,0,9.6818,9.6842,9.7044,9.6951,9.6976,9.7015,9.7071,9.7075,9.711,9.7155,9.7161,9.7114,9.7202,9.722,9.7331,9.7395,9.7281,9.7289,9.7626,9.7632,9.7638,9.7708,0,0,0,0,0,0,9.681,9.684,9.689,9.6953,9.6981,9.7142,9.7075,9.7081,9.7126,9.712,9.7184,9.719,9.72,9.7319,9.734,9.7404,9.7295,9.762,9.7629,9.7636,9.77,9.7716,9.7729,0,0,0,0,0,9.68,9.6903,9.6893,9.6917,9.7045,9.7146,9.7162,9.7172,9.7131,9.7182,9.7211,9.7188,9.7384,9.733,9.7354,9.7422,9.7616,9.7626,9.7636,9.7693,9.7713,9.7729,0,0,0,0,0,0,9.6844,9.6911,9.69,9.7027,9.7081,9.714,9.7203,9.7192,9.7257,9.7249,9.7258,9.7272,9.7387,9.7415,9.7354,9.7553,9.7494,9.7509,9.753,9.7549,9.7563,9.7554,9.7303,0,0,0,0,0,9.6869,9.6946,9.7,9.7106,9.7134,9.7164,9.7208,9.7212,9.7268,9.729,9.7327,9.7381,9.7455,9.7503,9.7574,9.7704,9.7718,9.7763,9.7777,9.7789,9.7802,9.7875,9.7896,9.7673,9.7673,9.7673,0,0,9.692,9.6966,9.7014,9.7116,9.7158,9.7238,9.7184,9.7269,9.7328,9.7302,9.7411,9.744,9.7501,9.7624,9.7679,9.7651,9.7867,9.7802,9.7811,9.7817,9.7888,9.7909,9.7927,9.768,9.7678,9.7677,0,0,9.7054,9.7096,9.719,9.7235,9.7301,9.7322,9.7344,9.7406,9.7425,9.7535,9.7518,9.7588,9.7714,9.776,9.7799,9.7954,9.7937,9.7977,9.8053,9.8125,9.8142,9.8158,9.8215,9.8235,9.7989,9.799,9.799,0,9.7108,9.7229,9.724,9.7329,9.7375,9.7358,9.7454,9.7496,9.7581,9.7613,9.7581,9.7742,9.7781,9.7915,9.7954,9.7986,9.8012,9.7969,9.8139,9.8155,9.817,9.8224,9.8245,9.7994,9.7994,9.7993,9.7993,0,9.7293,9.7377,9.7445,9.7531,9.7585,9.7676,9.7701,9.7754,9.7754,9.7778,9.7891,9.7938,9.8019,9.8051,9.805,9.8186,9.8167,9.8137,9.8078,9.8196,9.8247,9.8267,9.8001,9.7999,9.7998,9.7997,0,0,9.7456,9.755,9.7575,9.7615,9.7688,9.7753,9.7844,9.7926,9.7972,9.8032,9.8109,9.8218,9.8193,9.8238,9.8242,9.8305,9.8427,9.8268,9.8269,9.8297,9.8581,9.8603,9.8627,9.8416,9.842,9.8423,9.8576,0,9.7597,9.776,9.7775,9.7921,9.8,9.7986,9.8066,9.812,9.8145,9.8215,9.8242,9.832,9.828,9.8307,9.8369,9.8399,9.8484,9.8388,9.8488,9.8491,9.8474,9.8653,9.8677,9.8818,9.8596,9.8599,9.8602,0,9.7783,9.7852,9.8007,9.8073,9.8106,9.8178,9.8255,9.8322,9.8383,9.8397,9.845,9.8447,9.8541,9.848,9.861,9.8544,9.8586,9.8608,9.8614,9.8623,9.8554,9.8668,9.8863,9.8885,9.8633,9.8631,9.8628,0,9.7889,9.802,9.813,9.8164,9.8243,9.8294,9.8329,9.8386,9.8436,9.8503,9.8535,9.8611,9.8653,9.8713,9.8731,9.8684,9.8861,9.8801,9.8876,9.8875,9.8913,9.891,9.9118,9.8939,9.8939,9.8939,9.8938,0,9.8045,9.8141,9.8179,9.8247,9.8354,9.837,9.8475,9.8507,9.8559,9.8632,9.8625,9.8694,9.8713,9.8786,9.8801,9.8907,9.8926,9.894,9.8943,9.8941,9.8939,9.8968,9.8959,9.8944,9.8943,9.8942,9.8941,0,9.818,9.821,9.8329,9.8395,9.8414,9.849,9.8546,9.8612,9.8637,9.8731,9.8754,9.8793,9.8878,9.8903,9.9004,9.9014,9.914,9.9133,9.912,9.912,9.9194,9.9187,9.9428,9.9461,9.926,9.9262,9.9263,0,9.8278,9.8352,9.8427,9.8477,9.8515,9.8595,9.8646,9.8665,9.8719,9.8796,9.8852,9.8937,9.9006,9.9144,9.918,9.9259,9.9254,9.9333,9.9266,9.9263,9.9257,9.9252,9.9261,9.9346,9.9348,9.935,9.9351,0,9.845,9.8462,9.8536,9.8618,9.868,9.8744,9.8805,9.8846,9.8874,9.8934,9.9023,9.9077,9.9183,9.9268,9.9348,9.9383,9.9372,9.9373,9.9394,9.9393,9.9383,9.9391,9.9156,9.9367,9.9365,9.9364,9.9363,9.9362,9.857,9.8636,9.8701,9.8785,9.8834,9.8892,9.8958,9.8993,9.9068,9.9157,9.9164,9.926,9.9321,9.9428,9.9468,9.9543,9.952,9.9551,9.9559,9.9566,9.9573,9.9372,9.9558,9.9557,9.9557,9.9557,9.9556,0,9.8743,9.8784,9.8862,9.895,9.9017,9.9003,9.9071,9.9128,9.9213,9.9272,9.9342,9.9445,9.9528,9.9573,9.9655,9.9707,9.9705,9.9728,9.9725,9.9733,9.9589,9.9562,9.9729,9.9729,9.9729,9.9729,9.9729,9.9729,9.884,9.8952,9.8972,9.9108,9.9149,9.9245,9.9285,9.934,9.9387,9.9503,9.9573,9.9603,9.9657,9.9744,9.9819,9.983,9.9861,9.9888,9.9897,9.9761,9.9743,9.9726,9.9701,9.9895,9.9895,10.0035,10.0036,10.0037]}]]